Home   Weather   Vellore   Past weeks

Flag for India Past Weather in Vellore, Tamil Nadu, India — Yesterday and Last 2 Weeks

Now
70 °F

Passing clouds.


Feels Like: 70 °F
Forecast: 64 / 83 °F
Wind: No wind

Location: Madras / Minambakkam

Current Time: Jan 19, 2017 at 3:53:50 am

Latest Report: Jan 19, 2017 at 3:00 am


Visibility: 4 mi

Pressure: 29.89 "Hg

Humidity: 83%

Dew Point: 64 °F

Location of VelloreLocation

Past Weather in Vellore — Graph

°F

Vellore Temperature Yesterday

Maximum temperature yesterday: 84 °F (at 12:30 pm)
Minimum temperature yesterday: 70 °F (at 5:00 am)
Average temperature yesterday: 77 °F

High & Low Weather Summary for the Past Weeks

 TemperatureHumidityPressure
High88 °F (Jan 7, 11:30 am)94% (Jan 4, 4:30 am)30.01 "Hg (Jan 4, 4:30 am)
Low66 °F (Jan 17, 5:30 am)43% (Jan 4, 3:00 pm)29.74 "Hg (Jan 7, 2:30 pm)
Average77 °F71%29.86 "Hg
* Reported Jan 4 2:30 am — Jan 19 2:30 am, Vellore, Weather by CustomWeather, © 2017

Note: Actual official high and low records may vary slightly from our data, if they occured in-between our weather recording intervals... More about our weather records

Advertising

Vellore Weather History for the Previous 24 Hours

Scroll right to see more
 ConditionsComfort  
Time TempWeatherWind HumidityBarometerVisibility
2:30 am
Thu, Jan 19
70 °FPassing clouds.No wind78%29.92 "Hg4 mi
2:00 am72 °FPassing clouds.No wind73%29.92 "Hg4 mi
1:30 am73 °FPassing clouds.No wind65%29.95 "Hg4 mi
1:00 am73 °FPassing clouds.2 mph65%29.95 "Hg4 mi
12:30 am73 °FPassing clouds.2 mph65%29.95 "Hg4 mi
12:00 am73 °FPassing clouds.3 mph65%29.95 "Hg4 mi
11:30 pm
Wed, Jan 18
75 °FPassing clouds.3 mph61%29.95 "Hg4 mi
11:00 pm75 °FPassing clouds.3 mph65%29.98 "Hg4 mi
10:30 pm77 °FPassing clouds.3 mph61%29.98 "Hg4 mi
10:00 pm77 °FPassing clouds.5 mph61%29.98 "Hg4 mi
9:30 pm77 °FPassing clouds.3 mph61%29.98 "Hg4 mi
9:00 pm77 °FPassing clouds.7 mph61%29.98 "Hg4 mi
8:30 pm77 °FPassing clouds.7 mph61%29.98 "Hg4 mi
8:00 pm77 °FPassing clouds.7 mph61%29.95 "Hg4 mi
7:30 pm77 °FPassing clouds.7 mph61%29.95 "Hg4 mi
7:00 pm77 °FPassing clouds.7 mph61%29.95 "Hg4 mi
6:30 pm77 °FScattered clouds.7 mph61%29.95 "Hg4 mi
6:00 pm79 °FScattered clouds.9 mph54%29.95 "Hg4 mi
5:30 pm81 °FScattered clouds.9 mph51%29.92 "Hg4 mi
5:00 pm81 °FScattered clouds.12 mph51%29.92 "Hg5 mi
4:30 pm82 °FScattered clouds.12 mph51%29.92 "Hg5 mi
4:00 pm82 °FScattered clouds.12 mph51%29.92 "Hg5 mi
3:30 pm82 °FScattered clouds.12 mph51%29.89 "Hg5 mi
3:00 pm84 °FScattered clouds.9 mph48%29.89 "Hg5 mi
2:30 pm82 °FScattered clouds.12 mph51%29.89 "Hg5 mi
2:00 pm82 °FScattered clouds.12 mph51%29.92 "Hg5 mi
1:30 pm82 °FScattered clouds.12 mph51%29.92 "Hg5 mi
1:00 pm82 °FScattered clouds.9 mph51%29.95 "Hg5 mi
12:30 pm84 °FScattered clouds.8 mph48%29.95 "Hg5 mi
12:00 pm82 °FScattered clouds.7 mph48%29.95 "Hg4 mi
11:30 am82 °FScattered clouds.7 mph51%29.98 "Hg4 mi
11:00 am82 °FScattered clouds.8 mph48%29.98 "Hg4 mi
10:30 am82 °FScattered clouds.8 mph48%29.98 "Hg3 mi
10:00 am82 °FScattered clouds.6 mph48%30.01 "Hg2 mi
9:30 am81 °FScattered clouds.5 mph58%30.01 "Hg2 mi
9:00 am79 °FScattered clouds.3 mph61%30.01 "Hg2 mi
8:30 am77 °FScattered clouds.3 mph65%29.98 "Hg1 mi
8:00 am73 °FFog.No wind78%29.98 "Hg1 mi
7:30 am72 °FFog.2 mph78%29.95 "Hg1 mi
7:00 am70 °FFog.No wind78%29.92 "Hg1 mi
6:30 am70 °FFog.No wind78%29.92 "Hg1 mi
6:00 am70 °FFog.No wind83%29.92 "Hg1 mi
5:30 am70 °FFog.No wind83%29.92 "Hg2 mi
5:00 am70 °FFog.No wind83%29.89 "Hg2 mi
4:30 am72 °FFog.No wind78%29.89 "Hg2 mi
4:00 am72 °FFog.No wind78%29.89 "Hg2 mi
3:30 am72 °FFog.No wind78%29.89 "Hg2 mi
3:00 am72 °FFog.No wind78%29.89 "Hg2 mi
Weather by CustomWeather, © 2017

See weather overviewHow to use our weather pages